STARLINK-11594 [DTC]

Last updated on Thu Jul 03 2025 00:02:06 GMT+0000 (Coordinated Universal Time)

1 64320U 25124D 25183.46785375 .00342841 00000+0 18854-2 0 9992 2 64320 43.0003 98.1388 0001031 294.9686 65.1077 15.77966278 3471
UTC large
Height (km)
Speed (km/s)
/
Latitude / Longitude
Inclination (degrees)
Orbital Period (minutes)
Azimuth
Elevation
Range (km)
Doppler Factor

Next 0 passes for location: London (51.5072 / 0.1276)

Sorry there are no passes over London.